Regional Weather Roundup
Issued by NWS Grand Forks, ND

Home | Current Version | Previous Version | Graphics & Text | Print | Product List | Glossary On
Versions: 1 2 3 4 5 6 7 8 9 10 11 12 13 14 15 16 17 18 19 20 21 22 23 24 25 26 27 28 29 30 31 32 33 34 35 36 37 38 39 40 41 42 43 44 45 46 47 48 49 50
000
ASUS43 KFGF 270531
RWRFGF
PRAIRIE TO PINES  WEATHER ROUNDUP
NATIONAL WEATHER SERVICE EASTERN NORTH DAKOTA/GRAND FORKS ND
1100 PM CST MON JAN 26 2015

 **SATELLITE DATA USED TO AUGMENT SKY COVER AT AUTOMATED STATIONS**
 *****  WEATHER ACROSS EASTERN NORTH DAKOTA  *****

CITY           SKY/WX    TMP DP  RH WIND       PRES   REMARKS
GRAND FORKS    CLOUDY    25  23  93 E3        30.02R FOG
GRAND FRKS AFB CLEAR     23  21  93 SE5       30.02R WCI  17
DEVILS LAKE    CLEAR     27  25  93 CALM      29.97R
FARGO          CLEAR     25  23  92 CALM      30.02S
WAHPETON ARPT  PTCLDY    28  27  93 N3        30.03S
$$

 ***** WEATHER ACROSS CENTRAL AND WESTERN NORTH DAKOTA  *****

CITY           SKY/WX    TMP DP  RH WIND       PRES   REMARKS
BISMARCK       CLEAR     31  29  92 E5        29.97F
MINOT          CLEAR     31  28  89 S6        29.90F
JAMESTOWN      CLEAR     27  26  96 SW3       29.98S
MINOT AFB      CLEAR     28  28  99 SE3       29.90F
GARRISON         N/A     32  29  88 CALM      29.92F
WILLISTON      CLEAR     29  28  96 CALM      29.88S
DICKINSON      CLEAR     36  31  82 S10       29.89F
HETTINGER      CLEAR     31  27  85 CALM      29.94S
$$

 *****  OTHER AIRPORT OBSERVATIONS IN OUR AREA  *****

CITY           SKY/WX    TMP DP  RH WIND       PRES   REMARKS
WALHALLA         N/A     21  21 100 SE5       29.99S WCI  15
GRAFTON AIRPOR NOT AVBL
VALLEY CITY AR FAIR      27  27 100 CALM      30.00R FOG
CANDO          FAIR      23  23 100 SE6       29.97R WCI  16
CAVALIER APRT  FAIR      19  19 100 S5        30.01R WCI  13
GWINNER        CLEAR     32  32 100 CALM      30.02S
ROLLA          FAIR      30  30 100 SW5       29.93F
 ***** THE ABOVE OBSERVATIONS ARE NON NWS ARE NOT QUALITY
       CONTROLLED AND MAY MIS-REPORT RAIN FOR SNOW...
$$

  *****  WEATHER ACROSS NORTHERN MINNESOTA  *****

CITY           SKY/WX    TMP DP  RH WIND       PRES   REMARKS
FLAG ISLAND    CLOUDY    23  21  93 W3        29.99R
WARROAD        CLOUDY    23  19  86 CALM      30.00R
ROSEAU         CLOUDY    25  19  80 CALM      30.00R
HALLOCK        CLOUDY    25  23  93 CALM      30.02R
THF RVR FALLS  CLOUDY    27  25  93 CALM      30.01R
BAUDETTE       CLOUDY    25  21  85 VRB3      29.97R
WASKISH        CLOUDY    27  25  93 CALM      29.99R
CROOKSTON      CLOUDY    27  25  93 CALM      30.03R
STEPHEN NDAWN    N/A     25  25 100 N3          N/A
GREENBUSH NDAW   N/A     23  23 100 NW3         N/A
$$
  *****  WEATHER ACROSS CENTRAL AND WEST MINNESOTA  *****

CITY           SKY/WX    TMP DP  RH WIND       PRES   REMARKS
FOSSTON        CLOUDY    25  23  93 CALM      30.01R
BEMIDJI        CLOUDY    28  25  89 NW6       29.98S WCI  21
PARK RAPIDS    CLOUDY    29  25  85 N6        29.97S WCI  23
ELBOW LAKE     CLOUDY    28  27  95 N8        30.01R WCI  20
WADENA         CLOUDY    28  25  86 NW7       29.99R WCI  21
DETROIT LAKES  CLOUDY    28  28 100 NW6       30.01R WCI  22
MOORHEAD       CLOUDY    28  28 100 NE3       30.04R
FERGUS FALLS   CLOUDY    28  27  93 N5        30.05R WCI  23
MORRIS MN      PTCLDY    28  27  93 NW5       30.01R WCI  23
STAPLES        CLOUDY    28  27  93 NW3       29.99R
$$
  *****  WEATHER ELSEWHERE ACROSS MINNESOTA  *****

CITY           SKY/WX    TMP DP  RH WIND       PRES   REMARKS
DULUTH         CLOUDY    28  22  78 N5        29.93R WCI  23
INTRNTL FALLS  CLOUDY    25  21  85 NW3       29.97R
ELY            CLOUDY    23  19  86 NW5       29.95R WCI  17
CLOQUET        CLOUDY    28  21  74 N12       29.95R WCI  18
WHEATON        PTCLDY    27  27 100 CALM      30.05S
BRAINERD       CLOUDY    31  25  78 NW15      29.99R WCI  20
HIBBING        CLOUDY    28  22  78 N10       29.95R WCI  19
ALEXANDRIA     CLOUDY    29  26  89 NW7       30.00R WCI  22
SAINT CLOUD    CLOUDY    34  27  75 NW7       29.97R
MINNEAPOLIS    CLOUDY    37  28  70 NW7       29.96R
$$

  *****  WEATHER ACROSS SOUTH DAKOTA  *****

CITY           SKY/WX    TMP DP  RH WIND       PRES   REMARKS
SIOUX FALLS    PTCLDY    31  29  92 NW5       30.02R
BROOKINGS      NOT AVBL
WATERTOWN      CLEAR     29  27  92 CALM      30.01R
HURON          PTCLDY    29  27  92 CALM      30.03R
SISSETON         N/A     29  29 100 N3        30.02R
ABERDEEN       CLEAR     30  28  92 CALM      30.03R
MITCHELL       CLEAR     32  29  88 N3        30.05R
PIERRE         CLEAR     29  26  89 E5        29.98R WCI  24
MOBRIDGE       PTCLDY    33  29  85 SE5       29.96S
RAPID CITY     CLEAR     46  27  47 W3        29.97F
$$

  *****  SOME WEATHER IN NEARBY STATES *****

CITY           SKY/WX    TMP DP  RH WIND       PRES   REMARKS
GLASGOW MT     CLEAR     35  31  85 SE8       29.84F
GREAT FALLS MT PTCLDY    50  29  44 SW15      29.93S
CHEYENNE WY    PTCLDY    44  20  38 W10       30.21F
SCOTTSBLUFF NE CLEAR     41  30  65 NW9       30.11F
OMAHA NE       CLEAR     37  32  82 N10       30.03R
DES MOINES IA  MOCLDY    36  32  85 NW8       30.00R
DAVENPORT IA   CLOUDY    32  29  88 NW5       29.91R
CHICAGO IL     LGT SNOW  26  24  92 SE5       29.90S FOG     WCI  20
EAU CLAIRE WI  CLOUDY    27  25  92 CALM      29.93R
LA CROSSE WI   CLOUDY    30  27  88 NW3       29.94R FOG
$$

  *****  SOME NATIONAL WEATHER *****

CITY           SKY/WX    TMP DP  RH WIND       PRES   REMARKS
LA GUARDIA NY  HVY SNOW  25  21  86 N14       29.68F VSB 1/4 WCI  13
RALEIGH NC     LGT RAIN  41  33  73 N6        29.70R
ATLANTA GA     PTCLDY    34  27  75 NW9       29.91S
NEW ORLEANS LA PTCLDY    48  37  65 SW8       30.10S
OKLAHOMA CITY  CLEAR     54  34  46 NW6       30.08R
ALBUQUERQUE NM PTCLDY    38  26  62 S5        30.34S
SALT LAKE CITY PTCLDY    34  31  88 E6        30.21F
LOS ANGELES CA LGT RAIN  56  53  90 E6        30.10S
BOISE ID       CLEAR     32  31  96 S3        30.15F FOG
SEATTLE WA     CLEAR     50  46  86 S7        29.99R
$$

*** WEATHER ACROSS MANITOBA...SASKATCHEWAN AND ONTARIO ***
                ***ONTARIO***

CITY           SKY/WX    TMP DP  RH WIND       PRES   REMARKS
GERALDTON      FLURRIES  16  12  86 S6        30.01R WCI   7
THUNDER BAY    FLURRIES  21  19  93 VRB2      29.99R
SIOUX LOOKOUT  FRZ DRZL  21  19  93 NW6       29.94R WCI  14
TORONTO        FLURRIES  14   1  57 N12       29.99F WCI   0
BIG TROUT LK   CLOUDY     5   3  92 SW7       29.88S WCI  -7
PICKLE LAKE    NOT AVBL
DRYDEN         CLOUDY    21  19  93 W7        29.95R FOG     WCI  13
KENORA         LGT SNOW  19  19 100 SW2       29.96R VSB 3/4
$$
                *** MANITOBA***

CITY           SKY/WX    TMP DP  RH WIND       PRES   REMARKS
BRANDON        FOG       14  12  92 SE2       29.92S VSB 1/8
DAUPHIN        CLEAR     25  23  93 SW5       29.88S FOG     WCI  19
ISLAND LAKE    CLOUDY    16  12  86 SW7       29.88R WCI   6
PILOT MOUND      N/A     19  18  93 S5          N/A  WCI  13
THE PAS        CLEAR     18  16  93 SE7       29.78F WCI   8
THOMPSON       LGT SNOW  16  14  93 SW6       29.75S FOG     WCI   7
WINNIPEG       PTCLDY    19  18  93 SE7       30.00R WCI  10
LYNN LAKE      CLOUDY    28  28 100 W8        29.66R WCI  20
CHURCHILL      FLURRIES   5   3  92 SW10      29.64F WCI -10
GILLAM         FLURRIES  10   7  85 SW10      29.75S WCI  -3
$$
                ***SASKATCHEWAN***

CITY           SKY/WX    TMP DP  RH WIND       PRES   REMARKS
ESTEVAN        PTCLDY    30  28  93 SE5       29.87S
KINDERSLEY     MOCLDY    28  27  93 NE5       29.76S WCI  23
LLOYDMINSTER   CLOUDY    39  30  70 NW6       29.77S
PRINCE ALBERT  PTCLDY    25  25 100 SW5       29.80R WCI  19
REGINA         PTCLDY    30  28  93 SE10      29.83F WCI  21
YORKTON        CLEAR     28  27  93 SW10      29.85S WCI  19
N. BATTLEFORD  CLOUDY    34  30  86 CALM      29.80F
LA RONGE       PTCLDY    23  21  93 CALM      29.76R
SASKATOON      MOCLDY    34  30  86 NE2       29.82R
SWIFT CURRENT  CLEAR     36  32  87 S8        29.76F
$$
NOTE: THESE ARE AUTOMATED STATIONS WITH LIMITED QUALITY CONTROL
      "FAIR" INDICATES FEW OR NO CLOUDS BELOW 12,000 FEET WITH NO
      SIGNIFICANT WEATHER AND/OR OBSTRUCTIONS TO VISIBILITY.
      SKY/WX - SKY CONDITION AND SIGNIFICANT WEATHER.
      TMP - AIR TEMPERATURE.    DP   - DEWPOINT TEMPERATURE.
      RH  - RELATIVE HUMIDITY.  PRES - PRESSURE.
      HX  - HEAT INDEX.         WCI  - WIND CHILL INDEX.
$


USA.gov is the U.S. government's official web portal to all federal, state and local government web resources and services.